Ingeniero Juan Guillermo Villasana Airport

Jump to: basic info | weather | frequencies | runways | comments

Related pages: nearby airports | nearby navaids | notams | map

Basic information (top)

Codes: MMPC
Location: lon 20.077400, lat -98.782501, elev 7,600 ft / 2,316 m msl
Status: small_airport

Weather (top)

Current conditions for Licenciado Benito Juarez International Airport 42nm (77km) SSW (rec'd 2014/09/30 10:49Z):

MMMX 301049Z 03004KT 10SM FEW007 BKN015 OVC070 15/13 A3023 NOSIG RMK 8/77/ HZY

Airport forecast for Licenciado Benito Juarez International Airport 42nm (77km) SSW (rec'd 2014/09/29 12:45Z):

TAF COR MMMX 291139Z 2912/3018 33005KT P6SM BKN020 BKN080 TX23/2921Z TN15/2912Z 
      TEMPO 2912/2915 5SM RA 
     FM292100 08012KT P6SM BKN015CB OVC070 
      TEMPO 2922/3002 3SM TSRA 
     FM300300 03005KT P6SM SCT020 BKN080 
      TEMPO 3010/3014 BKN020 
     FM301500 08005KT P6SM SCT020 BKN250

Frequencies (top)

Verify before use: may be inaccurate or out of date.

AFIS: 122.9 MHz (AFIS)

Runways (top)

03/21: 6,825 x 85 ft (2,080 x 26 m) — paved — not lighted — threshold 03 displaced 656 ft (200 m) — threshold 21 displaced 865 ft (264 m)

Latest comments (top)

No comments yet for Ingeniero Juan Guillermo Villasana Airport

More... (top)

See also NOTAMs and nearby airports and navaids, or visit the Ingeniero Juan Guillermo Villasana Airport page at the main OurAirports website..